[[[{"header":{"parameterUnit":"kt","parameterCategory":2,"dx":1,"dy":1,"la1":30.253999710083008,"la2":30.299108505249023,"lo1":-89.0895004272461,"lo2":-89.04439544677734,"nx":28,"ny":28,"refTime":"2022-10-30T21:00:00:Z","depth":"0","parameterNumber":2,"parameterNumberName":"U-component_of_CURRENTS"},"data":[0.36,0.3737,0.389,0.4043,0.4194,0.4175,0.4155,0.3962,0.3806,0.3234,0.2774,0.2574,0.206,0.1252,0.064,0.0617,0.0694,0.05,0.0842,0.127,0.1411,0.1545,0.1348,0.0218,0.0217,-0.0002,-0.0005,-0.0007,0.3667,0.3839,0.4079,0.4328,0.4435,0.4617,0.4713,0.4591,0.4412,0.4293,0.4119,0.3474,0.2987,0.2708,0.2066,0.1772,0.1896,0.167,0.1665,0.1765,0.2445,0.2244,0.1286,0.1286,0.1286,0.1287,0.1287,0.1287,0.3801,0.3924,0.4217,0.4453,0.4647,0.4785,0.4784,0.4902,0.4884,0.4732,0.4862,0.4552,0.4173,0.3919,0.3875,0.328,0.372,0.3062,0.3151,0.3253,0.3045,0.3765,0.3236,0.3242,0.3247,0.3252,0.3256,0,0.392,0.4059,0.43,0.4588,0.4747,0.4951,0.5119,0.5125,0.5308,0.5274,0.5227,0.517,0.5061,0.4752,0.4673,0.466,0.4584,0.4693,0.4507,0.3779,0.3663,0.3636,0.4713,0.4298,0.4311,0.432,0.4327,0.4332,0.4015,0.4151,0.4588,0.4725,0.4904,0.508,0.5184,0.5384,0.545,0.5533,0.5539,0.555,0.5528,0.5511,0.5466,0.5464,0.5517,0.4999,0.4987,0.4662,0.4691,0.4742,0.4724,0.4468,0.4451,0.4437,0.4425,0,0.4083,0.4367,0.4644,0.5037,0.5126,0.5219,0.5464,0.5504,0.5594,0.5633,0.5649,0.5781,0.5818,0.5979,0.6134,0.6095,0.5871,0.6079,0.5593,0.5508,0.4869,0.4899,0.4486,0.4412,0.5654,0.5644,0.5636,0,0.4327,0.4483,0.4924,0.5059,0.52,0.5481,0.5534,0.567,0.5769,0.5805,0.5938,0.5951,0.6154,0.6219,0.6371,0.629,0.6469,0.6279,0.6258,0.5896,0.5833,0.5607,0.5623,0.6678,0.6678,0.6679,0.668,0,0.4446,0.4836,0.5027,0.5172,0.5596,0.5627,0.5779,0.592,0.5978,0.6046,0.606,0.615,0.6184,0.6303,0.6461,0.6513,0.6548,0.6632,0.6355,0.6331,0.5957,0.5896,0.5427,0.6681,0.6681,0.6681,0.6681,0,0.4703,0.4959,0.5187,0.5561,0.5632,0.5745,0.5912,0.6027,0.6127,0.6179,0.6229,0.6319,0.637,0.6477,0.6574,0.6584,0.6654,0.672,0.6719,0.6413,0.6427,0.59,0.5658,0.5391,0.6697,0.6697,0.6698,0,0.4797,0.5088,0.532,0.5544,0.5738,0.5974,0.6051,0.6214,0.6317,0.6367,0.6441,0.6495,0.6607,0.6618,0.6656,0.6753,0.6744,0.6771,0.6807,0.6806,0.6455,0.6322,0.5858,0.5704,0.6706,0.6705,0.6704,0,0.4878,0.5364,0.5374,0.5547,0.5891,0.6025,0.6132,0.6306,0.6325,0.6492,0.6484,0.6614,0.6659,0.6695,0.6761,0.6777,0.6754,0.6834,0.6838,0.6763,0.6747,0.6379,0.6339,0.6803,0.6803,0.6803,0.671,0,0.529,0.5433,0.5472,0.5737,0.5892,0.6027,0.627,0.6363,0.6461,0.6567,0.663,0.6742,0.6801,0.6832,0.6885,0.6884,0.6885,0.694,0.6924,0.6905,0.6868,0.6862,0.6953,0.6955,0.6957,0.6958,0,0,0.5305,0.5462,0.5657,0.58,0.5936,0.6174,0.6284,0.6397,0.6623,0.6635,0.6678,0.6822,0.6891,0.6906,0.6917,0.6968,0.6967,0.6923,0.6927,0.6923,0.692,0.6882,0.6875,0.6961,0.6961,0.6962,0.6962,0,0.5456,0.5572,0.5622,0.5804,0.6061,0.6213,0.6255,0.6496,0.6546,0.6676,0.6735,0.6789,0.6906,0.6937,0.6962,0.6986,0.699,0.7005,0.692,0.6939,0.6933,0.6928,0.6889,0.6882,0.6966,0.6966,0.6966,0,0.558,0.574,0.5765,0.6009,0.6137,0.6288,0.6375,0.6511,0.6596,0.668,0.6756,0.683,0.69,0.6951,0.6977,0.6966,0.6988,0.7008,0.7002,0.6999,0.7022,0.7015,0.701,0.7075,0.7075,0.7075,0,0,0.5683,0.5752,0.6017,0.605,0.6143,0.6338,0.6424,0.6527,0.6646,0.6678,0.6756,0.6818,0.688,0.6894,0.6981,0.7019,0.7031,0.7015,0.701,0.7005,0.6999,0.702,0.7015,0.7074,0.7074,0.7073,0,0,0.571,0.5964,0.6036,0.6098,0.6284,0.6497,0.653,0.6625,0.6703,0.6685,0.6761,0.6779,0.6845,0.6885,0.6865,0.6937,0.6967,0.6974,0.6875,0.687,0.6866,0.6836,0.6878,0,0,0,0,0,0.5948,0.5948,0.6012,0.6054,0.6285,0.6481,0.6516,0.6627,0.6625,0.6656,0.6715,0.6726,0.6885,0.687,0.6891,0.6866,0.706,0.7062,0.7065,0.6954,0.6948,0.6943,0,0,0,0,0,0,0.5966,0.6009,0.6015,0.6222,0.628,0.6477,0.6498,0.6528,0.6623,0.6625,0.6718,0.6729,0.6775,0.6861,0.688,0.6854,0.6872,0.7061,0.7063,0.7065,0.6952,0.6947,0.6943,0,0,0,0,0,0.5981,0.6016,0.6338,0.6224,0.6274,0.6454,0.6493,0.6518,0.6567,0.6693,0.6706,0.6648,0.6776,0.6793,0.6873,0.6843,0.6859,0.6866,0.7062,0.7064,0.7065,0.695,0,0,0,0,0,0,0.5992,0.6025,0.6352,0.6376,0.6197,0.6444,0.6475,0.651,0.6626,0.6649,0.6625,0.6625,0.6777,0.679,0.6804,0.6835,0.6848,0.6855,0.686,0.7063,0.7065,0.7066,0,0,0,0,0,0,0.601,0.6041,0.6364,0.6322,0.6341,0.6435,0.6462,0.6541,0.6621,0.6544,0.6554,0.6623,0.6734,0.6789,0.6799,0.6922,0.684,0.6847,0.6852,0.6855,0.7064,0.7065,0,0,0,0,0,0,0.6027,0.6055,0.6315,0.633,0.6346,0.6605,0.6503,0.6704,0.6674,0.6532,0.6668,0.6666,0.673,0.6744,0.6796,0.6914,0.692,0.6841,0.6845,0.6848,0.6851,0,0,0,0,0,0,0,0.6041,0.5804,0.6235,0.6336,0.635,0.6601,0.6605,0.6609,0.6673,0.6671,0.6669,0.6667,0.6802,0.6809,0.6817,0.6907,0,0,0.684,0.6843,0,0,0,0,0,0,0,0,0.5798,0.5803,0.6236,0.6242,0.6249,0.6602,0.6605,0.6608,0.6673,0.6671,0.6669,0.6668,0.6804,0.681,0.6816,0,0,0,0,0,0,0,0,0,0,0,0,0,0,0,0.6237,0.6242,0,0.6602,0.6605,0.6608,0.6673,0.6671,0.667,0.6668,0.6806,0.6811,0.6816,0,0,0,0,0,0,0,0,0,0,0,0,0,0,0,0,0,0,0,0,0,0,0,0,0,0,0,0,0,0,0,0,0,0,0,0,0,0,0,0,0,0,0,0,0,0,0,0,0,0,0,0,0,0,0,0,0,0,0,0,0,0,0,0,0,0,0,0,0]}],[{"header":{"parameterUnit":"kt","parameterCategory":2,"dx":1,"dy":1,"la1":30.253999710083008,"la2":30.299108505249023,"lo1":-89.0895004272461,"lo2":-89.04439544677734,"nx":28,"ny":28,"refTime":"2022-10-30T21:00:00:Z","depth":"0","parameterNumber":3,"parameterNumberName":"V-component_of_CURRENTS"},"data":[0.0475,0.0572,0.0585,0.0744,0.0781,0.0892,0.0964,0.1137,0.1303,0.1613,0.1783,0.1865,0.1786,0.1765,0.1719,0.1693,0.1639,0.1705,0.1634,0.1379,0.1332,0.1287,0.1235,0.1727,0.1727,0.1881,0.1882,0.1883,0.0388,0.0413,0.0472,0.0517,0.0596,0.0544,0.0647,0.0747,0.0996,0.1215,0.1435,0.1636,0.1763,0.1687,0.1601,0.1542,0.1447,0.1474,0.1377,0.139,0.1177,0.1135,0.1614,0.1614,0.1614,0.1614,0.1614,0.1614,0.0223,0.0259,0.0258,0.0302,0.0334,0.0389,0.0462,0.0529,0.0682,0.0896,0.0966,0.1225,0.129,0.1335,0.1288,0.1211,0.1089,0.1068,0.1021,0.0978,0.1002,0.0774,0.1186,0.1184,0.1182,0.1181,0.118,0,0.008,0.0066,0.0046,0.0082,0.0112,0.0117,0.0147,0.0223,0.0207,0.0341,0.0564,0.0699,0.0866,0.0979,0.0979,0.0908,0.0606,0.0643,0.0611,0.0553,0.0564,0.0605,0.0198,0.0591,0.0585,0.0581,0.0578,0.0576,-0.0058,-0.0062,-0.0138,-0.012,-0.0163,-0.0148,-0.0121,-0.0191,-0.0135,-0.0022,0.0079,0.0239,0.0382,0.0527,0.044,0.0462,0.0305,0.0517,0.026,0.0275,0.0231,0.0176,0.0203,0.0518,0.0526,0.0532,0.0537,0,-0.0118,-0.0226,-0.0259,-0.0367,-0.0379,-0.0347,-0.0378,-0.0329,-0.035,-0.0225,-0.0197,-0.0195,-0.0053,-0.0129,-0.0092,-0.0194,-0.0061,-0.0102,0.0037,0.0071,0.0147,0.0093,0.046,0.0534,0.0149,0.0155,0.016,0,-0.0269,-0.0298,-0.0436,-0.0462,-0.0441,-0.0573,-0.0518,-0.0568,-0.0567,-0.0482,-0.0598,-0.0491,-0.0621,-0.0532,-0.0625,-0.0489,-0.0507,-0.0573,-0.0547,-0.0481,-0.0464,-0.0445,-0.0499,-0.0725,-0.0728,-0.073,-0.0733,0,-0.033,-0.0482,-0.0515,-0.057,-0.0722,-0.0715,-0.077,-0.082,-0.0811,-0.0799,-0.0746,-0.0773,-0.072,-0.0752,-0.0792,-0.0916,-0.0666,-0.0838,-0.0677,-0.0664,-0.0524,-0.0506,-0.0243,-0.0736,-0.0737,-0.0738,-0.0739,0,-0.0482,-0.0561,-0.0625,-0.0741,-0.0765,-0.0817,-0.0851,-0.0915,-0.0948,-0.0968,-0.0983,-0.1037,-0.1024,-0.1153,-0.1084,-0.117,-0.1158,-0.117,-0.1158,-0.1043,-0.1107,-0.0683,-0.0443,-0.045,-0.1026,-0.1029,-0.1033,0,-0.0519,-0.0617,-0.072,-0.0807,-0.0867,-0.0989,-0.1036,-0.1112,-0.1171,-0.1173,-0.124,-0.1259,-0.1403,-0.1396,-0.14,-0.1417,-0.1342,-0.1495,-0.1305,-0.1297,-0.1158,-0.0979,-0.0854,-0.0517,-0.1078,-0.1073,-0.107,0,-0.0542,-0.0729,-0.0739,-0.0779,-0.0958,-0.1029,-0.1103,-0.1194,-0.1173,-0.1314,-0.1274,-0.1438,-0.145,-0.1501,-0.1581,-0.1559,-0.1411,-0.1605,-0.1605,-0.1428,-0.1195,-0.1057,-0.1013,-0.1471,-0.1467,-0.1464,-0.1106,0,-0.0647,-0.0723,-0.0763,-0.087,-0.0964,-0.1052,-0.1176,-0.1243,-0.13,-0.1368,-0.142,-0.1551,-0.1612,-0.1662,-0.1746,-0.1697,-0.1666,-0.1744,-0.1747,-0.1689,-0.1541,-0.1512,-0.1878,-0.1879,-0.1881,-0.1882,0,0,-0.0627,-0.0702,-0.0807,-0.0877,-0.095,-0.1086,-0.1141,-0.1238,-0.1417,-0.1425,-0.1475,-0.1627,-0.1728,-0.1767,-0.1782,-0.1852,-0.1786,-0.1836,-0.1744,-0.1729,-0.1715,-0.157,-0.154,-0.1884,-0.1885,-0.1885,-0.1886,0,-0.0651,-0.0728,-0.0759,-0.0867,-0.1008,-0.1108,-0.1128,-0.1295,-0.1345,-0.1464,-0.1525,-0.1587,-0.1758,-0.1806,-0.1852,-0.1872,-0.1841,-0.19,-0.1818,-0.1759,-0.1742,-0.1727,-0.1581,-0.1553,-0.1889,-0.1889,-0.1889,0,-0.0646,-0.0731,-0.0759,-0.0924,-0.1024,-0.1119,-0.1184,-0.1297,-0.1355,-0.1469,-0.1566,-0.1648,-0.1754,-0.1839,-0.1879,-0.1888,-0.1864,-0.1952,-0.1946,-0.1917,-0.1857,-0.1838,-0.1822,-0.2023,-0.2023,-0.2023,0,0,-0.0654,-0.0704,-0.0863,-0.0938,-0.0992,-0.1137,-0.1218,-0.1289,-0.1413,-0.1463,-0.1564,-0.1649,-0.1734,-0.1784,-0.1882,-0.1963,-0.1916,-0.1963,-0.1957,-0.1951,-0.192,-0.1859,-0.1842,-0.2023,-0.2023,-0.2023,0,0,-0.067,-0.0805,-0.0831,-0.0924,-0.1059,-0.1245,-0.131,-0.1369,-0.1487,-0.1469,-0.1582,-0.1614,-0.1702,-0.1769,-0.1757,-0.186,-0.1891,-0.1898,-0.1808,-0.1802,-0.1796,-0.1731,-0.1801,0,0,0,0,0,-0.0733,-0.0781,-0.0802,-0.0836,-0.1049,-0.1223,-0.126,-0.1376,-0.1366,-0.1424,-0.1509,-0.1543,-0.1779,-0.1772,-0.1804,-0.179,-0.2021,-0.2022,-0.2022,-0.1928,-0.192,-0.1913,0,0,0,0,0,0,-0.0747,-0.0782,-0.0803,-0.0977,-0.1029,-0.1221,-0.1242,-0.1276,-0.1364,-0.1372,-0.1526,-0.1548,-0.1629,-0.176,-0.1788,-0.1772,-0.1792,-0.2021,-0.2022,-0.2022,-0.1925,-0.1919,-0.1913,0,0,0,0,0,-0.0758,-0.0788,-0.1082,-0.0981,-0.1025,-0.1196,-0.124,-0.1269,-0.1337,-0.1485,-0.1511,-0.1417,-0.1628,-0.1657,-0.1777,-0.1756,-0.1773,-0.1783,-0.2022,-0.2022,-0.2022,-0.1922,0,0,0,0,0,0,-0.0767,-0.0829,-0.1095,-0.1116,-0.0957,-0.119,-0.1223,-0.1261,-0.1446,-0.1474,-0.138,-0.1384,-0.1628,-0.1651,-0.1673,-0.1745,-0.1758,-0.1768,-0.1774,-0.2022,-0.2022,-0.2022,0,0,0,0,0,0,-0.0815,-0.0845,-0.1106,-0.1069,-0.1087,-0.1183,-0.1212,-0.1322,-0.1444,-0.1329,-0.134,-0.1379,-0.1575,-0.1646,-0.1664,-0.1833,-0.1746,-0.1756,-0.1763,-0.1767,-0.2022,-0.2022,0,0,0,0,0,0,-0.0831,-0.0857,-0.1065,-0.1078,-0.1094,-0.1339,-0.1282,-0.148,-0.1453,-0.1318,-0.1449,-0.1447,-0.1568,-0.1589,-0.1657,-0.1819,-0.183,-0.1746,-0.1753,-0.1758,-0.1761,0,0,0,0,0,0,0,-0.0845,-0.0623,-0.0971,-0.1086,-0.1099,-0.1311,-0.1317,-0.1323,-0.1452,-0.1451,-0.1449,-0.1448,-0.169,-0.17,-0.1711,-0.1808,0,0,-0.1745,-0.175,0,0,0,0,0,0,0,0,-0.0617,-0.0622,-0.0971,-0.0976,-0.098,-0.1312,-0.1317,-0.1321,-0.1452,-0.1451,-0.145,-0.1449,-0.1693,-0.1701,-0.171,0,0,0,0,0,0,0,0,0,0,0,0,0,0,0,-0.0972,-0.0976,0,-0.1313,-0.1317,-0.132,-0.1452,-0.1451,-0.145,-0.1449,-0.1695,-0.1702,-0.1709,0,0,0,0,0,0,0,0,0,0,0,0,0,0,0,0,0,0,0,0,0,0,0,0,0,0,0,0,0,0,0,0,0,0,0,0,0,0,0,0,0,0,0,0,0,0,0,0,0,0,0,0,0,0,0,0,0,0,0,0,0,0,0,0,0,0,0,0,0]}]],[[{"header":{"parameterUnit":"kt","parameterCategory":2,"dx":1,"dy":1,"la1":30.253999710083008,"la2":30.299108505249023,"lo1":-89.0895004272461,"lo2":-89.04439544677734,"nx":28,"ny":28,"refTime":"2022-10-30T21:00:00:Z","depth":"2","parameterNumber":2,"parameterNumberName":"U-component_of_CURRENTS"},"data":[0.225,0.2215,0.2201,0.2113,0.2163,0.2059,0.202,0.1885,0.1773,0.1525,0.1362,0.1273,0.1272,0.0867,0.0808,0.0636,0.1076,0.0586,0.1371,0.1787,0.1879,0.2139,0.1947,0,0,0,0,0,0.2296,0.2298,0.2341,0.2393,0.2358,0.2501,0.2469,0.2374,0.225,0.219,0.2156,0.1757,0.1425,0.1439,0.1161,0.11,0.1275,0.109,0.136,0.1462,0.1554,0.1366,0.0545,0.0543,0.0541,0.0539,0,0,0.2372,0.2379,0.2436,0.2558,0.2612,0.2608,0.2603,0.2627,0.2615,0.2599,0.2708,0.2542,0.2503,0.2032,0.196,0.1922,0.2201,0.2191,0.2243,0.2306,0.2137,0.194,0.1529,0.1534,0.1537,0.1541,0.1544,0,0.2417,0.2477,0.254,0.2655,0.2728,0.2829,0.292,0.2868,0.3028,0.3113,0.3139,0.3124,0.3023,0.2766,0.2647,0.2654,0.3051,0.2825,0.3616,0.3037,0.2861,0.2817,0.2857,0.2657,0.2668,0.2676,0.2682,0.2687,0.2536,0.253,0.2708,0.277,0.2841,0.2968,0.3027,0.3181,0.3215,0.3406,0.3397,0.3485,0.3455,0.3439,0.3418,0.3406,0.374,0.3097,0.3117,0.3698,0.3648,0.3655,0.3659,0.2805,0.279,0.2777,0.2767,0,0.258,0.2656,0.2728,0.2882,0.2944,0.3026,0.3193,0.3249,0.3404,0.3504,0.3549,0.3713,0.3763,0.3919,0.4123,0.4079,0.4106,0.4038,0.3645,0.3533,0.3743,0.373,0.3668,0.3653,0.364,0.3629,0.362,0,0.2673,0.2741,0.2866,0.2882,0.2998,0.3111,0.3238,0.3368,0.3507,0.3592,0.3771,0.382,0.4083,0.4162,0.4288,0.4197,0.4435,0.418,0.4119,0.3873,0.3807,0.4499,0.4479,0.4682,0.4683,0.4683,0.4683,0,0.27,0.284,0.2892,0.294,0.3075,0.3151,0.3252,0.3434,0.3509,0.3698,0.3756,0.3967,0.404,0.4204,0.4304,0.4341,0.4459,0.4507,0.4176,0.4142,0.3853,0.3781,0.4683,0.4683,0.4683,0.4684,0.4684,0,0.2763,0.2804,0.2887,0.3011,0.3054,0.313,0.3308,0.3405,0.3582,0.3669,0.3823,0.391,0.4086,0.4122,0.4321,0.4277,0.4352,0.4406,0.4406,0.3966,0.3839,0.3474,0.3502,0.4303,0.4301,0.4299,0.4298,0,0.2751,0.2818,0.287,0.2982,0.3028,0.3138,0.3241,0.3361,0.3476,0.3594,0.3735,0.3862,0.3928,0.3998,0.4131,0.4203,0.4299,0.4245,0.4249,0.4247,0.3798,0.3906,0.359,0.3502,0.4273,0.4275,0.4277,0,0.2726,0.2799,0.2836,0.2873,0.2997,0.3041,0.3165,0.3283,0.3367,0.35,0.3611,0.3822,0.3875,0.3932,0.3987,0.4096,0.4242,0.4079,0.4081,0.4005,0.436,0.3922,0.3895,0.428,0.4285,0.4288,0.4258,0,0.2726,0.2785,0.2813,0.288,0.2944,0.3011,0.3093,0.3176,0.3255,0.3312,0.3493,0.358,0.3698,0.3775,0.3792,0.3982,0.3913,0.3914,0.3808,0.3979,0.3937,0.3953,0.3726,0.3723,0.3721,0.3719,0,0,0.2717,0.2737,0.2766,0.281,0.2864,0.2918,0.2979,0.3034,0.3116,0.3174,0.3189,0.3397,0.3453,0.3598,0.369,0.3705,0.3701,0.3666,0.3904,0.3924,0.3943,0.3913,0.393,0.3716,0.3715,0.3714,0.3714,0,0.2686,0.2729,0.2746,0.2796,0.2859,0.2883,0.2919,0.2977,0.3027,0.3128,0.3152,0.3275,0.3363,0.3429,0.347,0.3658,0.3595,0.3702,0.3793,0.3882,0.3906,0.3927,0.3901,0.3918,0.3708,0.3709,0.3709,0,0.2673,0.2683,0.2696,0.2743,0.2779,0.2832,0.2823,0.2885,0.2941,0.2918,0.3025,0.3083,0.3134,0.3253,0.3312,0.3261,0.3476,0.342,0.3434,0.3429,0.3515,0.3544,0.3569,0.323,0.3229,0.3227,0,0,0.2658,0.2672,0.2708,0.2739,0.2771,0.2802,0.2831,0.2853,0.2892,0.292,0.2951,0.3011,0.3086,0.3124,0.3177,0.3269,0.3251,0.3359,0.3382,0.34,0.3406,0.3497,0.3526,0.322,0.322,0.322,0,0,0.2643,0.2659,0.2677,0.271,0.2754,0.2764,0.2806,0.2825,0.2883,0.2901,0.2894,0.2902,0.3029,0.3025,0.2938,0.3164,0.3077,0.3093,0.3145,0.3173,0.3195,0.3185,0.2871,0,0,0,0,0,0.2628,0.2652,0.2669,0.2677,0.2715,0.2756,0.2763,0.2789,0.2803,0.2843,0.288,0.2846,0.2999,0.292,0.2924,0.3026,0.3134,0.3149,0.3163,0.3254,0.3284,0.331,0,0,0,0,0,0,0.2631,0.2639,0.2668,0.2675,0.2684,0.2753,0.2731,0.2738,0.28,0.2805,0.284,0.2844,0.2825,0.2914,0.2919,0.3018,0.2869,0.314,0.3153,0.3164,0.3265,0.3289,0.331,0,0,0,0,0,0.2634,0.2641,0.2697,0.2675,0.2683,0.2721,0.2731,0.2738,0.2796,0.2788,0.2795,0.2824,0.2824,0.2831,0.2917,0.3018,0.2865,0.2867,0.3148,0.3158,0.3168,0.3277,0,0,0,0,0,0,0.2636,0.264,0.2699,0.2702,0.2681,0.2721,0.2728,0.2737,0.2777,0.2785,0.2765,0.2768,0.2823,0.2829,0.2834,0.3022,0.2863,0.2865,0.2866,0.3156,0.3164,0.3171,0,0,0,0,0,0,0.2637,0.2642,0.27,0.2707,0.2711,0.272,0.2726,0.2744,0.2777,0.2751,0.2755,0.2766,0.2823,0.2827,0.2831,0.2857,0.286,0.2862,0.2863,0.2864,0.3162,0.3169,0,0,0,0,0,0,0.264,0.2644,0.2706,0.2709,0.2713,0.2753,0.2736,0.2777,0.2775,0.2749,0.2777,0.2778,0.2821,0.2826,0.2829,0.2853,0.2856,0.286,0.2862,0.2863,0.2863,0,0,0,0,0,0,0,0.2642,0.2604,0.2682,0.2711,0.2715,0.2737,0.2737,0.2738,0.2775,0.2776,0.2777,0.2778,0.285,0.2852,0.2854,0.2849,0,0,0.286,0.2861,0,0,0,0,0,0,0,0,0.2602,0.2603,0.2682,0.2683,0.2684,0.2737,0.2737,0.2738,0.2776,0.2776,0.2777,0.2778,0.285,0.2852,0.2853,0,0,0,0,0,0,0,0,0,0,0,0,0,0,0,0.2682,0.2683,0,0.2737,0.2737,0.2737,0.2776,0.2776,0.2777,0.2777,0.2851,0.2852,0.2853,0,0,0,0,0,0,0,0,0,0,0,0,0,0,0,0,0,0,0,0,0,0,0,0,0,0,0,0,0,0,0,0,0,0,0,0,0,0,0,0,0,0,0,0,0,0,0,0,0,0,0,0,0,0,0,0,0,0,0,0,0,0,0,0,0,0,0,0,0]}],[{"header":{"parameterUnit":"kt","parameterCategory":2,"dx":1,"dy":1,"la1":30.253999710083008,"la2":30.299108505249023,"lo1":-89.0895004272461,"lo2":-89.04439544677734,"nx":28,"ny":28,"refTime":"2022-10-30T21:00:00:Z","depth":"2","parameterNumber":3,"parameterNumberName":"V-component_of_CURRENTS"},"data":[0.0501,0.0635,0.0713,0.0984,0.1115,0.1309,0.1419,0.1531,0.1567,0.1602,0.1509,0.1539,0.1366,0.1122,0.1,0.0838,0.0835,0.0792,0.0942,0.0978,0.0987,0.0919,0.0885,0,0,0,0,0,0.0457,0.055,0.0707,0.09,0.1082,0.1127,0.1355,0.1464,0.1637,0.1665,0.1717,0.1517,0.1422,0.1256,0.0966,0.0851,0.0832,0.0793,0.08,0.0811,0.0821,0.0789,0.0715,0.0714,0.0713,0.0712,0,0,0.0391,0.0475,0.0605,0.076,0.0932,0.1107,0.1249,0.1409,0.1593,0.1671,0.1727,0.1687,0.1577,0.131,0.1197,0.1007,0.1038,0.0939,0.0943,0.0948,0.0924,0.087,0.0885,0.0885,0.0886,0.0886,0.0886,0,0.0341,0.037,0.0499,0.0653,0.0796,0.0984,0.1146,0.1285,0.1431,0.1501,0.1603,0.1647,0.1562,0.1465,0.1283,0.12,0.1094,0.1048,0.114,0.0986,0.0932,0.088,0.0872,0.0965,0.0966,0.0967,0.0967,0.0968,0.0247,0.0321,0.0488,0.0577,0.065,0.0829,0.0978,0.1128,0.1253,0.1379,0.1432,0.1448,0.1491,0.1457,0.1316,0.1215,0.1201,0.1077,0.1007,0.1021,0.097,0.0957,0.0946,0.0978,0.0977,0.0976,0.0975,0,0.021,0.0268,0.0425,0.0589,0.0644,0.0754,0.0973,0.1128,0.1186,0.1331,0.1329,0.1384,0.1369,0.1329,0.1305,0.1218,0.1188,0.1145,0.1073,0.1027,0.0958,0.0945,0.1073,0.1072,0.1071,0.107,0.107,0,0.0175,0.0273,0.0384,0.046,0.0625,0.0718,0.0911,0.0983,0.1131,0.1259,0.1233,0.1319,0.1259,0.1272,0.119,0.1136,0.1198,0.1038,0.1,0.0957,0.0943,0.099,0.0974,0.112,0.1119,0.1119,0.1119,0,0.0119,0.026,0.0369,0.0421,0.0605,0.0679,0.0764,0.0913,0.1026,0.1115,0.115,0.1239,0.1226,0.1213,0.1107,0.1054,0.1135,0.1061,0.0974,0.0965,0.0951,0.0936,0.1119,0.1119,0.1119,0.1119,0.1119,0,0.01,0.0186,0.0303,0.0488,0.0523,0.0592,0.077,0.0854,0.0989,0.1007,0.1073,0.1054,0.1123,0.1002,0.1049,0.0991,0.0922,0.0892,0.0892,0.0853,0.0737,0.0703,0.0808,0.0809,0.0807,0.0805,0.0804,0,0.0062,0.017,0.0212,0.0342,0.042,0.0467,0.0565,0.0657,0.0698,0.0791,0.0823,0.0877,0.0794,0.0782,0.0823,0.0793,0.0825,0.0771,0.0761,0.0762,0.0686,0.08,0.076,0.078,0.078,0.0782,0.0784,0,0.0024,0.0132,0.013,0.0206,0.0265,0.0321,0.0399,0.0504,0.0586,0.0576,0.0681,0.0723,0.0693,0.0727,0.0702,0.074,0.0777,0.0634,0.0635,0.0619,0.0826,0.0769,0.0779,0.0731,0.0735,0.0739,0.0765,0,0.0072,0.0101,0.0118,0.0178,0.0219,0.0256,0.0301,0.0334,0.0313,0.0345,0.0432,0.0433,0.0493,0.0489,0.0459,0.0577,0.0514,0.0487,0.0453,0.0542,0.0536,0.0551,0.0359,0.0358,0.0357,0.0356,0,0,0.0022,0.006,0.0057,0.01,0.0135,0.0118,0.017,0.0191,0.0206,0.0249,0.0168,0.0264,0.0259,0.0398,0.0406,0.0398,0.0379,0.0374,0.0492,0.0507,0.0521,0.052,0.0536,0.0355,0.0355,0.0354,0.0354,0,0.0042,0.0024,0.0044,0.0073,0.0094,0.0111,0.0111,0.0116,0.0118,0.0155,0.0138,0.0173,0.0189,0.025,0.0277,0.0372,0.0322,0.0345,0.0435,0.0482,0.0498,0.0512,0.0515,0.0529,0.0352,0.0352,0.0353,0,0.0031,0.004,0.0037,0.0058,0.006,0.0102,0.0049,0.0056,0.0096,0.0046,0.0076,0.0069,0.0102,0.016,0.0179,0.016,0.0275,0.0228,0.0234,0.0281,0.033,0.0348,0.0364,0.0151,0.015,0.0149,0,0,0.0043,0.0049,0.0062,0.0058,0.0065,0.0057,0.0059,0.0045,0.0048,0.004,0.0031,0.0042,0.0079,0.009,0.0119,0.0174,0.0188,0.0202,0.0212,0.0219,0.0269,0.032,0.0338,0.0146,0.0146,0.0146,0,0,0.0043,0.0051,0.0038,0.0032,0.0052,0.0057,0.0055,0.0034,0.0033,0.0011,-0.0003,-0.0003,0.0036,0.0043,0.0004,0.0102,0.0066,0.0074,0.0087,0.0098,0.0108,0.0158,-0.0039,0,0,0,0,0,0.0061,0.0059,0.0048,0.0046,0.0038,0.0071,0.0071,0.0039,-0.0011,-0.0001,-0.0009,-0.004,0.0031,-0.0005,0.0001,0.0031,0.0106,0.0113,0.012,0.015,0.0162,0.0173,0,0,0,0,0,0,0.006,0.0058,0.0048,0.0051,0.005,0.0069,0.0015,0.0007,-0.0012,-0.0021,-0.0036,-0.0039,-0.0042,-0.0009,-0.0004,0.0025,-0.004,0.0109,0.0115,0.012,0.0154,0.0164,0.0173,0,0,0,0,0,0.006,0.0058,0.0045,0.0052,0.005,0.002,0.0012,0.0005,-0.002,-0.0016,-0.0023,-0.0049,-0.004,-0.0038,-0.0006,0.0023,-0.0044,-0.0042,0.0113,0.0118,0.0122,0.0159,0,0,0,0,0,0,0.006,0.0057,0.0045,0.0044,0.0026,0.0017,0.0012,0.0004,-0.0015,-0.0021,-0.0026,-0.0033,-0.0037,-0.0037,-0.0035,0.0024,-0.0047,-0.0045,-0.0044,0.0116,0.012,0.0123,0,0,0,0,0,0,0.0058,0.0056,0.0044,0.0013,0.0009,0.0015,0.001,0.0041,-0.0015,-0.0025,-0.0031,-0.0029,-0.0041,-0.0035,-0.0034,0.0015,-0.005,-0.0048,-0.0046,-0.0045,0.0119,0.0122,0,0,0,0,0,0,0.0057,0.0056,0.0013,0.001,0.0006,-0.0001,0.0042,0.0033,-0.0038,-0.0024,-0.0045,-0.0049,-0.0038,-0.0038,-0.0033,0.0016,0.0016,-0.0049,-0.0048,-0.0047,-0.0047,0,0,0,0,0,0,0,0.0057,0.0064,0.0047,0.0007,0.0003,0.0042,0.0042,0.0041,-0.0039,-0.0042,-0.0045,-0.0047,-0.0061,-0.0059,-0.0056,0.0017,0,0,-0.005,-0.0049,0,0,0,0,0,0,0,0,0.0064,0.0064,0.0047,0.0047,0.0047,0.0042,0.0042,0.0041,-0.0039,-0.0042,-0.0044,-0.0046,-0.006,-0.0058,-0.0057,0,0,0,0,0,0,0,0,0,0,0,0,0,0,0,0.0047,0.0047,0,0.0042,0.0042,0.0042,-0.004,-0.0042,-0.0044,-0.0045,-0.006,-0.0058,-0.0057,0,0,0,0,0,0,0,0,0,0,0,0,0,0,0,0,0,0,0,0,0,0,0,0,0,0,0,0,0,0,0,0,0,0,0,0,0,0,0,0,0,0,0,0,0,0,0,0,0,0,0,0,0,0,0,0,0,0,0,0,0,0,0,0,0,0,0,0,0]}]],[[{"header":{"parameterUnit":"kt","parameterCategory":2,"dx":1,"dy":1,"la1":30.253999710083008,"la2":30.299108505249023,"lo1":-89.0895004272461,"lo2":-89.04439544677734,"nx":28,"ny":28,"refTime":"2022-10-30T21:00:00:Z","depth":"4","parameterNumber":2,"parameterNumberName":"U-component_of_CURRENTS"},"data":[0.0608,0.0505,0.0385,0.0238,0.0163,0.0123,0.0167,0.0268,0.03,0.0464,0.052,0.0636,0.0732,0.0818,0.0838,0.0856,0.0843,0.1026,0.1022,0.1068,0.108,0.109,0.1023,0,0,0,0,0,0.0604,0.0508,0.0403,0.0291,0.0246,0.0228,0.0299,0.0368,0.0514,0.0559,0.0658,0.0737,0.082,0.0898,0.087,0.0982,0.1034,0.0939,0.0969,0.1075,0.1088,0.1019,0,0,0,0,0,0,0.0599,0.0536,0.0412,0.034,0.0308,0.0291,0.0345,0.0409,0.0501,0.0724,0.0747,0.091,0.1045,0.106,0.107,0.1071,0.1047,0.0987,0.1004,0.1017,0.0947,0.0818,0.0804,0,0,0,0,0,0.0575,0.0551,0.0452,0.0352,0.0361,0.0349,0.0412,0.0474,0.0618,0.0763,0.0877,0.0968,0.1062,0.1125,0.1151,0.1145,0.1232,0.1196,0.1202,0.1164,0.1081,0.1044,0.1038,0.1138,0.114,0.1141,0.1141,0,0.0625,0.0537,0.0414,0.0377,0.0338,0.0383,0.0415,0.054,0.0614,0.0828,0.0888,0.1076,0.1166,0.1191,0.1263,0.1269,0.1248,0.123,0.1189,0.1101,0.1063,0.1053,0.1042,0.1152,0.1151,0.115,0.1149,0,0.065,0.0521,0.0404,0.0311,0.0308,0.0347,0.0414,0.0517,0.0668,0.0815,0.0904,0.1086,0.1181,0.125,0.1358,0.1291,0.1304,0.1276,0.1314,0.1282,0.1069,0.1054,0.1169,0.1165,0.1162,0.1159,0.1157,0,0.0613,0.0546,0.0385,0.0301,0.0318,0.0249,0.0375,0.0464,0.0623,0.072,0.0876,0.0993,0.1142,0.1224,0.1238,0.1233,0.1338,0.119,0.1163,0.1225,0.121,0.1216,0.1198,0.1373,0.1373,0.1373,0.1372,0,0.0652,0.0436,0.0327,0.0247,0.0105,0.0184,0.0215,0.0333,0.041,0.0645,0.075,0.0938,0.1066,0.114,0.118,0.1162,0.1294,0.1255,0.1145,0.1132,0.1207,0.1189,0.1372,0.1372,0.1372,0.1372,0.1372,0,0.0567,0.0407,0.0251,0.0131,0.0098,0.0093,0.0202,0.0223,0.0403,0.0483,0.0664,0.075,0.0941,0.0903,0.1065,0.1028,0.1062,0.1076,0.1078,0.095,0.085,0.0782,0.1025,0.1023,0.1021,0.1018,0.1017,0,0.0623,0.0395,0.0254,0.0146,0.0019,-0.0011,0.0031,0.007,0.0142,0.028,0.0421,0.0575,0.0577,0.0711,0.0793,0.0875,0.0947,0.0874,0.095,0.0951,0.0728,0.0923,0.0941,0.0985,0.0989,0.0992,0.0994,0,0.0632,0.0307,0.0292,0.0209,0.0008,-0.0053,-0.0017,-0.0009,0.0087,0.0119,0.0262,0.0438,0.0515,0.0603,0.0685,0.0765,0.0887,0.0767,0.0769,0.0682,0.1034,0.0897,0.0902,0.0918,0.0923,0.0927,0.0971,0,0.0493,0.0364,0.0302,0.0104,0.0029,-0.0064,-0.0146,-0.0104,-0.0082,-0.0084,0.0099,0.0165,0.0334,0.0406,0.0433,0.0651,0.0625,0.0614,0.0501,0.0689,0.0687,0.0705,0.0475,0.0474,0.0472,0.0471,0,0,0.0578,0.0383,0.0229,0.0102,0.0024,-0.0068,-0.0148,-0.0168,-0.0245,-0.0183,-0.0205,0.0035,0.0066,0.0266,0.0372,0.0388,0.0417,0.0375,0.0629,0.0646,0.0663,0.0668,0.0686,0.0469,0.0469,0.0469,0.0468,0,0.0475,0.0352,0.0255,0.0137,-0.002,-0.0093,-0.0118,-0.0255,-0.0254,-0.0239,-0.0194,-0.0078,-0.0005,0.0089,0.0151,0.0351,0.0308,0.0442,0.0537,0.0616,0.0634,0.0651,0.066,0.0677,0.0465,0.0466,0.0466,0,0.045,0.0294,0.0236,0.0025,-0.0061,-0.0151,-0.0214,-0.03,-0.0319,-0.0349,-0.0322,-0.0254,-0.0168,-0.005,0.0005,-0.0033,0.0195,0.0136,0.0149,0.0149,0.0223,0.0248,0.0271,-0.004,-0.0043,-0.0045,0,0,0.0391,0.0267,0.0074,-0.0005,-0.0068,-0.0187,-0.0235,-0.0294,-0.0348,-0.0354,-0.0365,-0.0295,-0.0212,-0.0183,-0.0132,-0.005,-0.0055,0.0066,0.009,0.0109,0.0118,0.0199,0.0226,-0.0055,-0.0055,-0.0056,0,0,0.0371,0.012,0.008,-0.0041,-0.0153,-0.0309,-0.0327,-0.0377,-0.0385,-0.0358,-0.0392,-0.0393,-0.0298,-0.028,-0.0405,-0.0129,-0.0208,-0.0187,-0.0198,-0.0168,-0.0144,-0.0155,-0.0468,0,0,0,0,0,0.0196,0.0138,0.0104,0.0063,-0.0152,-0.0296,-0.0315,-0.0384,-0.0382,-0.0403,-0.038,-0.0424,-0.0295,-0.0411,-0.0417,-0.031,-0.018,-0.0158,-0.0137,-0.0128,-0.0096,-0.0069,0,0,0,0,0,0,0.0178,0.0125,0.0105,-0.0062,-0.011,-0.0294,-0.0313,-0.0332,-0.0381,-0.0385,-0.0422,-0.0426,-0.0447,-0.0412,-0.0417,-0.0312,-0.0467,-0.0171,-0.0152,-0.0135,-0.0117,-0.0091,-0.0068,0,0,0,0,0,0.0164,0.0121,-0.0219,-0.0058,-0.01,-0.0211,-0.0312,-0.0328,-0.0356,-0.041,-0.0416,-0.0406,-0.0447,-0.0451,-0.0415,-0.0307,-0.0464,-0.0466,-0.0159,-0.0144,-0.0131,-0.0104,0,0,0,0,0,0,0.0153,0.0133,-0.0227,-0.024,-0.0049,-0.02,-0.0232,-0.0323,-0.0376,-0.0387,-0.0394,-0.0396,-0.0447,-0.045,-0.0453,-0.0299,-0.0462,-0.0464,-0.0465,-0.0148,-0.0136,-0.0126,0,0,0,0,0,0,0.0156,0.0122,-0.0233,-0.0218,-0.023,-0.019,-0.0219,-0.0236,-0.0372,-0.0353,-0.036,-0.0393,-0.0419,-0.045,-0.0452,-0.0476,-0.0461,-0.0462,-0.0463,-0.0464,-0.0138,-0.0129,0,0,0,0,0,0,0.0142,0.0113,-0.0215,-0.0224,-0.0233,-0.0374,-0.0199,-0.0395,-0.0426,-0.0346,-0.0425,-0.0424,-0.0416,-0.0421,-0.0451,-0.0474,-0.0476,-0.0461,-0.0462,-0.0462,-0.0463,0,0,0,0,0,0,0,0.0131,0.0319,-0.0162,-0.0228,-0.0236,-0.0359,-0.0362,-0.0364,-0.0425,-0.0425,-0.0425,-0.0424,-0.0453,-0.0454,-0.0456,-0.0473,0,0,-0.0461,-0.0461,0,0,0,0,0,0,0,0,0.0332,0.0322,-0.0162,-0.0165,-0.0169,-0.036,-0.0362,-0.0364,-0.0425,-0.0425,-0.0425,-0.0424,-0.0453,-0.0455,-0.0456,0,0,0,0,0,0,0,0,0,0,0,0,0,0,0,-0.0162,-0.0165,0,-0.036,-0.0362,-0.0363,-0.0425,-0.0425,-0.0425,-0.0425,-0.0454,-0.0455,-0.0456,0,0,0,0,0,0,0,0,0,0,0,0,0,0,0,0,0,0,0,0,0,0,0,0,0,0,0,0,0,0,0,0,0,0,0,0,0,0,0,0,0,0,0,0,0,0,0,0,0,0,0,0,0,0,0,0,0,0,0,0,0,0,0,0,0,0,0,0,0]}],[{"header":{"parameterUnit":"kt","parameterCategory":2,"dx":1,"dy":1,"la1":30.253999710083008,"la2":30.299108505249023,"lo1":-89.0895004272461,"lo2":-89.04439544677734,"nx":28,"ny":28,"refTime":"2022-10-30T21:00:00:Z","depth":"4","parameterNumber":3,"parameterNumberName":"V-component_of_CURRENTS"},"data":[0.047,0.0567,0.0645,0.0789,0.0897,0.106,0.1165,0.1246,0.1226,0.1306,0.1194,0.1226,0.103,0.1173,0.0854,0.0825,0.0796,0.0664,0.066,0.0661,0.0671,0.068,0.0741,0,0,0,0,0,0.0481,0.0547,0.0672,0.0845,0.0987,0.1095,0.1251,0.1332,0.1445,0.1393,0.1426,0.1303,0.1109,0.1037,0.0879,0.0911,0.0774,0.0721,0.0722,0.0667,0.0678,0.0734,0,0,0,0,0,0,0.0502,0.0563,0.0713,0.0871,0.1024,0.1146,0.1239,0.1332,0.1397,0.1478,0.1444,0.1352,0.1324,0.1109,0.0969,0.0833,0.0796,0.0748,0.0754,0.0763,0.0817,0.0866,0.0687,0,0,0,0,0,0.0535,0.0607,0.073,0.0909,0.1055,0.1191,0.1359,0.1389,0.1512,0.1568,0.152,0.1436,0.1299,0.1141,0.0995,0.0854,0.0859,0.0779,0.0784,0.0818,0.0852,0.0836,0.0852,0.072,0.0722,0.0723,0.0723,0,0.0541,0.0625,0.0851,0.0938,0.1063,0.1225,0.1325,0.1458,0.1504,0.1558,0.1577,0.1525,0.1492,0.1201,0.1112,0.0909,0.0883,0.0808,0.0845,0.0871,0.0849,0.0864,0.0878,0.0732,0.0731,0.0731,0.073,0,0.0538,0.0672,0.0834,0.1052,0.112,0.122,0.14,0.1453,0.1512,0.1556,0.1593,0.1582,0.1471,0.1385,0.1221,0.1133,0.0982,0.0917,0.1079,0.1054,0.0888,0.0898,0.0747,0.0744,0.0741,0.0738,0.0737,0,0.0581,0.0689,0.0899,0.0982,0.1119,0.1242,0.1341,0.1406,0.1479,0.1508,0.1536,0.1538,0.1489,0.1416,0.1329,0.116,0.1173,0.1046,0.1007,0.1148,0.1157,0.1105,0.111,0.1074,0.1075,0.1076,0.1076,0,0.0542,0.0759,0.0886,0.0951,0.1143,0.1225,0.1318,0.1372,0.1413,0.1464,0.1493,0.1481,0.1502,0.1415,0.1339,0.136,0.1191,0.1186,0.1057,0.1053,0.1113,0.1116,0.1078,0.1078,0.1078,0.1078,0.1079,0,0.0586,0.0711,0.0864,0.1045,0.1091,0.1175,0.1275,0.1338,0.1392,0.1421,0.1456,0.1476,0.148,0.1479,0.137,0.1421,0.1355,0.1294,0.1286,0.1197,0.1171,0.1191,0.1202,0.1203,0.1205,0.1206,0.1207,0,0.0536,0.071,0.0795,0.0941,0.1047,0.1128,0.1188,0.1257,0.1302,0.1368,0.1383,0.1432,0.1442,0.1485,0.1451,0.1395,0.1353,0.1414,0.1254,0.1249,0.1183,0.1173,0.1358,0.1228,0.1225,0.1223,0.1222,0,0.0491,0.0706,0.0724,0.0814,0.095,0.1008,0.1092,0.1178,0.1218,0.1318,0.1368,0.1409,0.1432,0.1437,0.1449,0.1414,0.1378,0.1409,0.1404,0.1345,0.1262,0.1205,0.1187,0.1366,0.1364,0.1363,0.1236,0,0.055,0.0649,0.0697,0.0828,0.0881,0.0972,0.1048,0.1126,0.1198,0.1234,0.1302,0.1328,0.1375,0.1393,0.1399,0.1402,0.1391,0.137,0.1332,0.136,0.1304,0.1293,0.1401,0.14,0.1399,0.1398,0,0,0.0483,0.0597,0.066,0.0747,0.0806,0.0877,0.0956,0.1003,0.1121,0.1152,0.1186,0.1273,0.129,0.1309,0.1348,0.1357,0.1328,0.138,0.1364,0.136,0.1357,0.1304,0.1295,0.1396,0.1396,0.1395,0.1395,0,0.0509,0.0576,0.0641,0.0704,0.0813,0.086,0.0893,0.1006,0.1051,0.114,0.1155,0.1196,0.1276,0.1276,0.128,0.1343,0.1306,0.1379,0.1417,0.1357,0.1355,0.1353,0.1301,0.1294,0.1392,0.1392,0.1393,0,0.0496,0.0572,0.0601,0.071,0.0766,0.0838,0.0858,0.0944,0.0996,0.1011,0.1114,0.1139,0.1148,0.1209,0.124,0.1228,0.127,0.1296,0.1302,0.1288,0.1222,0.1222,0.1221,0.1222,0.1221,0.1221,0,0,0.0514,0.0576,0.0666,0.0718,0.0761,0.0831,0.0869,0.092,0.0981,0.1011,0.1064,0.1108,0.1129,0.1162,0.1188,0.1244,0.1193,0.1277,0.1285,0.1291,0.1282,0.1219,0.1219,0.1219,0.1219,0.1219,0,0,0.0514,0.0627,0.065,0.0725,0.0783,0.0856,0.0895,0.0932,0.0991,0.1017,0.1037,0.1049,0.1115,0.1121,0.1098,0.1191,0.1156,0.1161,0.1197,0.1207,0.1215,0.1196,0.1086,0,0,0,0,0,0.0568,0.0612,0.0632,0.0654,0.077,0.0841,0.0854,0.0913,0.0941,0.0967,0.1015,0.1015,0.1115,0.1095,0.1103,0.1146,0.1198,0.1202,0.1205,0.1263,0.1274,0.1283,0,0,0,0,0,0,0.0577,0.0604,0.0631,0.0706,0.0733,0.0839,0.0858,0.0874,0.0939,0.0947,0.1006,0.1014,0.1024,0.1091,0.1098,0.114,0.1084,0.1199,0.1203,0.1206,0.1267,0.1275,0.1283,0,0,0,0,0,0.0585,0.0606,0.0784,0.0706,0.0729,0.0813,0.0859,0.0872,0.0929,0.0962,0.0974,0.0977,0.1022,0.1032,0.1095,0.1137,0.1079,0.1081,0.1202,0.1204,0.1206,0.1271,0,0,0,0,0,0,0.059,0.0606,0.0789,0.0797,0.0712,0.0809,0.0828,0.087,0.0941,0.0954,0.093,0.0934,0.1021,0.1029,0.1036,0.1136,0.1075,0.1077,0.1079,0.1203,0.1205,0.1207,0,0,0,0,0,0,0.0595,0.0612,0.0793,0.0798,0.0807,0.0805,0.0822,0.0847,0.094,0.0903,0.091,0.0931,0.1009,0.1027,0.1033,0.1069,0.1072,0.1074,0.1076,0.1077,0.1205,0.1207,0,0,0,0,0,0,0.0603,0.0618,0.0795,0.0802,0.081,0.0905,0.0826,0.0939,0.0956,0.0898,0.0959,0.096,0.1006,0.1013,0.103,0.1063,0.1067,0.1072,0.1073,0.1075,0.1076,0,0,0,0,0,0,0,0.0609,0.0501,0.0745,0.0806,0.0814,0.0876,0.0877,0.0879,0.0956,0.0958,0.0959,0.096,0.1057,0.106,0.1063,0.1058,0,0,0.1071,0.1073,0,0,0,0,0,0,0,0,0.0496,0.05,0.0745,0.0747,0.0749,0.0876,0.0877,0.0879,0.0957,0.0958,0.0958,0.0959,0.1058,0.106,0.1062,0,0,0,0,0,0,0,0,0,0,0,0,0,0,0,0.0745,0.0747,0,0.0876,0.0877,0.0878,0.0957,0.0958,0.0958,0.0959,0.1058,0.106,0.1062,0,0,0,0,0,0,0,0,0,0,0,0,0,0,0,0,0,0,0,0,0,0,0,0,0,0,0,0,0,0,0,0,0,0,0,0,0,0,0,0,0,0,0,0,0,0,0,0,0,0,0,0,0,0,0,0,0,0,0,0,0,0,0,0,0,0,0,0,0]}]]]